Flag for Brazil Weather past 2 weeks in Niterói, Rio de Janeiro, Brazil

Now
79 °F

Broken clouds.


Feels Like: 81 °F
Forecast: 73 / 75 °F
Wind: 9 mph from South

Location: Rio De Janeiro Airport

Current Time: May 5, 2015 at 3:24:41 PM

Latest Report: May 5, 2015 at 2:00 PM


Visibility: N/A

Pressure: 30.01 "Hg

Humidity: 70%

Dew point: 68 °F

Location of NiteróiLocation

Historic Weather in Niterói — Graph

°F

Niterói temperature yesterday

Maximum temperature yesterday: 86 °F (at 1:00 PM)
Minimum temperature yesterday: 73 °F (at 6:00 AM)
Average temperature yesterday: 80 °F

Past Weeks' High & Low Weather Summary

 TemperatureHumidityPressure
High93 °F (Apr 21, 2:00 PM)100% (Apr 21, 7:00 AM)30.12 "Hg (Apr 21, 7:00 AM)
Low66 °F (Apr 30, 12:00 PM)47% (Apr 21, 2:00 PM)29.80 "Hg (Apr 20, 2:00 PM)
Average76 °F80%29.99 "Hg
* Reported Apr 20 2:00 PM — May 5 2:00 PM, Niterói, Weather by CustomWeather, © 2015

Note: Actual official high and low records may vary slightly from our data, if they occured in-between our weather recording intervals... More about our weather records

Advertising

Niterói weather history for previous 24 hours

 ConditionsComfort  
Time TempWeatherWind HumidityBarometerVisibility
2:00 PM
Tue, May 5
79 °FBroken clouds.9 mph70%30.01 "HgN/A
1:00 PM77 °FBroken clouds.9 mph74%30.04 "Hg5 mi
12:00 PM79 °FBroken clouds.9 mph70%30.07 "Hg6 mi
11:00 AM77 °FMostly cloudy.12 mph74%30.07 "Hg6 mi
10:00 AM75 °FMostly cloudy.9 mph83%30.09 "Hg5 mi
9:00 AM75 °FMostly cloudy.7 mph83%30.07 "Hg5 mi
8:00 AM73 °FMostly cloudy.7 mph89%30.07 "Hg4 mi
7:00 AM72 °FLight rain. Mostly cloudy.13 mph94%30.04 "Hg4 mi
6:00 AM72 °FLight rain. Fog.13 mph94%30.01 "Hg2 mi
11:00 PM
Mon, May 4
75 °FLight rain. Fog.6 mph78%29.98 "Hg3 mi
10:00 PM73 °FLight rain. Mostly cloudy.8 mph83%29.98 "HgN/A
9:00 PM77 °FLight rain. Mostly cloudy.12 mph79%29.95 "Hg5 mi
8:00 PM81 °FLight rain. Partly cloudy.9 mph66%29.92 "HgN/A
7:00 PM79 °FPassing clouds.7 mph79%29.89 "HgN/A
6:00 PM79 °FPassing clouds.6 mph79%29.86 "HgN/A
5:00 PM82 °FPassing clouds.8 mph70%29.83 "HgN/A
4:00 PM84 °FPartly sunny.6 mph66%29.83 "HgN/A
3:00 PM84 °FScattered clouds.7 mph66%29.80 "HgN/A
Weather by CustomWeather, © 2015

See weather overviewHow to use our weather pages